Location: Bonny Doon Airfield
(37.0704°N, 122.1252°W)
Time: 11:36:57
(UTC-08:00)

Vanguard 2 - All Passes

Search period start: 20 February 2018 00:00
Search period end: 02 March 2018 00:00
Orbit: 553 x 2939 km, 32.9° (Epoch: 19 February)

Date Brightness Start Highest point End Pass type
(mag) Time Alt. Az. Time Alt. Az. Time Alt. Az.
20 Feb - 14:39:08 10° SSW 14:49:38 23° SSE 14:57:32 10° ESE daylight
20 Feb - 16:47:58 10° SW 16:59:57 45° SSE 17:07:22 10° E daylight
20 Feb - 18:59:48 10° WSW 19:09:23 62° S 19:15:06 10° E visible
20 Feb - 21:11:29 10° W 21:17:50 45° SSW 21:22:08 10° SE visible
20 Feb - 23:23:36 10° SW 23:25:10 12° SW 23:26:39 10° SSW night (unlit)
21 Feb - 12:55:34 10° SSE 12:56:58 10° SE 12:58:21 10° SE daylight
21 Feb - 14:55:31 10° SSW 15:07:48 30° SSE 15:16:29 10° E daylight
21 Feb - 17:05:45 10° WSW 17:18:05 53° SSE 17:25:30 10° E daylight
21 Feb - 19:18:03 10° W 19:27:27 64° S 19:33:05 10° ESE visible
21 Feb - 21:29:49 10° W 21:35:41 36° SSW 21:39:50 10° SE visible
22 Feb - 13:06:35 10° S 13:15:08 16° SE 13:22:26 10° ESE daylight
22 Feb - 15:12:28 10° SW 15:25:58 38° SSE 15:35:03 10° E daylight
22 Feb - 17:23:46 10° WSW 17:36:13 60° S 17:43:35 10° E daylight
22 Feb - 19:36:22 10° W 19:45:30 62° S 19:51:00 10° ESE visible
22 Feb - 21:48:15 10° W 21:53:28 27° SSW 21:57:18 10° SSE visible
23 Feb - 13:21:41 10° S 13:33:14 23° SSE 13:42:32 10° ESE daylight
23 Feb - 15:29:50 10° SW 15:44:06 46° SSE 15:53:24 10° E daylight
23 Feb - 17:41:57 10° WSW 17:54:20 66° S 18:01:36 10° E daylight
23 Feb - 19:54:41 10° W 20:03:30 56° SSW 20:08:53 10° ESE visible
23 Feb - 22:06:59 10° W 22:11:08 19° SW 22:14:26 10° S visible
24 Feb - 13:37:49 10° SSW 13:51:19 30° SSE 14:01:42 10° E daylight
24 Feb - 15:47:30 10° SW 16:02:15 54° SSE 16:11:35 10° E daylight
24 Feb - 18:00:14 10° WSW 18:12:28 69° S 18:19:36 10° E daylight
24 Feb - 20:13:02 10° W 20:21:26 48° SSW 20:26:40 10° SE visible
24 Feb - 22:26:24 10° WSW 22:28:43 12° SW 22:30:44 10° SSW visible
25 Feb - 11:50:24 10° SSE 11:58:25 15° SE 12:05:46 10° ESE daylight
25 Feb - 13:54:33 10° SSW 14:09:25 38° SSE 14:20:25 10° E daylight
25 Feb - 16:05:25 10° WSW 16:20:25 61° SSE 16:29:42 10° E daylight
25 Feb - 18:18:34 10° W 18:30:35 68° S 18:37:34 10° ESE visible
25 Feb - 20:31:27 10° W 20:39:15 39° SSW 20:44:18 10° SE visible
26 Feb - 12:04:53 10° S 12:16:24 21° SE 12:26:32 10° E daylight
26 Feb - 14:11:44 10° SW 14:27:32 46° SSE 14:38:51 10° E daylight
26 Feb - 16:23:32 10° WSW 16:38:36 67° S 16:47:46 10° E daylight
26 Feb - 18:36:57 10° W 18:48:40 65° S 18:55:30 10° ESE visible
26 Feb - 20:49:58 10° W 20:56:58 30° SSW 21:01:43 10° SSE visible
27 Feb - 12:20:41 10° SSW 12:34:22 28° SE 12:46:03 10° E daylight
27 Feb - 14:29:15 10° SW 14:45:40 53° SSE 14:57:08 10° E daylight
27 Feb - 16:41:48 10° WSW 16:56:47 71° S 17:05:48 10° E daylight
27 Feb - 18:55:21 10° W 19:06:40 59° SSW 19:13:21 10° ESE visible
27 Feb - 21:08:46 10° W 21:14:33 22° SW 21:18:47 10° S visible
28 Feb - 10:36:03 10° SSE 10:41:32 12° SE 10:46:55 10° ESE daylight
28 Feb - 12:37:11 10° SSW 12:52:21 36° SSE 13:05:00 10° E daylight
28 Feb - 14:47:03 10° WSW 15:03:50 61° SSE 15:15:18 10° E daylight
28 Feb - 17:00:09 10° W 17:14:57 72° S 17:23:49 10° E daylight
28 Feb - 19:13:46 10° W 19:24:36 51° SSW 19:31:05 10° SE visible
28 Feb - 21:28:08 10° WSW 21:32:01 15° SW 21:35:11 10° SSW visible
01 Mar - 10:49:08 10° S 10:59:21 18° SE 11:09:14 10° ESE daylight
01 Mar - 12:54:09 10° SW 13:10:21 44° SSE 13:23:35 10° E daylight
01 Mar - 15:05:04 10° WSW 15:22:01 67° SSE 15:33:26 10° E daylight
01 Mar - 17:18:33 10° W 17:33:07 71° S 17:41:48 10° ESE daylight
01 Mar - 19:32:15 10° W 19:42:23 42° SSW 19:48:41 10° SE visible
